Terug naar catalogus

ONEWEB-0677

ActiefCommunicatiePO
NORAD 56713·PAYLOAD·🇬🇧 United Kingdom

Gelanceerd May 20, 2023 vanaf Vandenberg Space Force Base

Loading…

Volgende Passages (komende 24 uur)

TLE

VersSource: CelesTrak SupGP

Epoch: Sep 14, 2026, 19:31 UTC

1 56713C 23068D   26257.81370787  .00001094  00000+0  26946-2 0  2573
2 56713  87.9142 256.5557 0002161  99.8477 296.0874 13.20770477    19

Volg ONEWEB-0677 in realtime met AllMySat

Download on the App Store